#timestamp,LO_Frequency,Hit 
1503946815.2,286047004.8,N
1503946835.9,286047003.8,N
1503946855.7,286047004.4,N
1503946875.6,286047003.3,N
1503946895.4,286047003.5,N
1503946915.2,286047004.9,N
1503946935.0,286047003.1,N
1503946935.9,286047003.1,N
1503946955.8,286047003.0,N
1503946975.6,286047005.1,N
1503946995.4,286047008.2,N
1503947015.3,286047010.0,N
1503947035.1,286047010.0,N
1503947055.8,286047011.8,N
1503947075.7,286047012.1,N
1503947095.5,286047009.8,N
1503947115.3,286047009.4,N
1503947135.2,286047011.2,N
1503947155.9,286047014.8,N
1503947175.7,286047017.1,P
1503947195.6,286047007.9,N
1503947215.4,286047012.3,N
1503947235.2,286047011.7,N
1503947255.1,286047013.5,P
1503947256.0,286047013.5,P
1503947275.8,286046999.2,N
1503947295.6,286046996.7,N
1503947315.5,286046997.2,N
1503947335.3,286046996.6,N
1503947355.1,286046997.4,N
1503947375.9,286046995.2,N
1503947395.7,286046995.1,N
1503947415.5,286046996.9,N
1503947435.3,286046998.1,N
1503947455.2,286046998.6,N
1503947475.0,286046999.3,N
1503947475.9,286046999.3,N
1503947495.7,286046996.3,N
1503947515.6,286046993.3,N
1503947535.4,286046995.4,N
1503947555.2,286046997.6,N
1503947575.1,286046998.6,N
1503947576.0,286046998.6,N
1503947595.8,286047000.3,N
1503947615.6,286047000.0,N
1503947635.5,286046999.7,N
1503947655.3,286047000.1,N
1503947675.1,286046999.7,N
1503947695.9,286047000.1,N
1503947715.7,286047000.8,N
1503947735.5,286047001.0,N
1503947755.4,286047000.4,N
1503947775.2,286046998.6,N
1503947795.0,286047000.2,N
1503947795.9,286047000.2,N
1503947815.7,286047000.2,N
1503947835.6,286047002.4,N
1503947855.4,286047001.2,N
1503947875.2,286046999.5,N
1503947895.1,286046995.0,N
1503947896.0,286046995.0,N
1503947915.8,286046993.4,P
1503947935.6,286046995.6,N
1503947955.5,286046997.0,N
1503947975.3,286046999.2,N
1503947995.1,286046996.5,N
1503948015.9,286046999.5,N
1503948035.7,286046999.9,N
1503948055.5,286046999.7,N
1503948075.4,286047002.4,N
1503948095.2,286047003.6,N
1503948115.0,286047002.4,N
1503948115.9,286047002.4,N
1503948135.8,286047000.8,N
1503948155.6,286046999.1,N
1503948175.4,286046999.1,N
1503948195.3,286046999.0,N
1503948215.1,286046997.8,N
1503948216.0,286046997.8,N
1503948235.8,286047000.4,N
1503948255.7,286047000.4,N
1503948275.5,286046996.5,N
1503948295.3,286046998.0,N
1503948315.1,286046999.3,N
1503948335.9,286047001.0,N
1503948355.7,286046998.8,N
1503948375.5,286046999.4,N
1503948395.4,286046997.2,N
1503948415.2,286046995.6,N
1503948435.0,286046995.2,N
1503948435.9,286046995.2,N
1503948455.8,286046994.0,N
1503948475.6,286046994.6,N
1503948495.4,286046993.4,N
1503948515.3,286046993.3,N
1503948535.1,286046996.1,N
1503948536.0,286046996.1,N
1503948555.8,286046993.1,N
1503948575.7,286046992.2,N
1503948595.5,286046993.8,N
1503948615.3,286046997.9,N
1503948635.1,286046997.5,N
1503948655.9,286046999.8,N
1503948675.7,286047002.8,N
1503948695.5,286047000.6,N
1503948715.4,286047000.6,N
1503948735.2,286047000.2,N
1503948755.0,286047002.5,N
1503948755.9,286047002.5,N
1503948775.8,286047002.2,N
1503948795.6,286047003.4,N
1503948815.4,286047001.7,N
1503948835.3,286047003.9,N
1503948855.1,286047001.7,N
1503948856.0,286047001.7,N
1503948875.8,286047001.5,N
1503948895.7,286047001.3,N
1503948915.5,286047002.1,N
1503948935.3,286047000.7,N
1503948955.2,286046998.1,N
1503948975.9,286047000.7,N
1503948995.8,286047000.8,N
1503949015.6,286047000.0,N
1503949035.4,286047000.9,N
1503949055.2,286046998.1,N
1503949075.1,286047001.1,N
1503949076.0,286047001.1,N
1503949095.8,286046998.8,N
1503949115.6,286046996.6,N
1503949135.5,286046997.7,N
1503949155.3,286046997.7,N
1503949175.1,286046998.0,N
1503949195.9,286046996.5,N
1503949215.7,286046998.8,N
1503949235.5,286046999.1,N
1503949255.4,286046998.7,N
1503949275.2,286046993.7,P
1503949295.0,286046991.8,N
1503949295.9,286046991.8,N
1503949315.8,286046993.7,N
1503949335.6,286046991.8,N
1503949355.4,286046993.3,N
1503949375.3,286046996.8,N
1503949395.1,286046999.3,N
1503949396.0,286046999.3,N
1503949415.8,286046999.1,N
1503949435.7,286046999.9,N
1503949455.5,286047003.7,N
1503949475.3,286047005.8,N
1503949495.2,286047003.1,N
1503949515.9,286047006.9,N
1503949535.7,286047008.5,N
1503949555.5,286047008.7,N
1503949575.4,286047006.9,N
1503949595.2,286047004.6,N
1503949615.0,286047006.4,N
1503949615.9,286047006.4,N
1503949635.8,286047005.7,N
1503949655.6,286047004.7,N
1503949675.4,286047006.8,N
1503949695.3,286047006.3,N
1503949715.1,286047006.9,N
1503949716.0,286047006.9,N
1503949735.8,286047006.5,N
1503949755.7,286047007.0,N
1503949775.5,286047008.1,N
1503949795.3,286047008.7,N
1503949815.2,286047004.8,N
1503949835.9,286047008.0,N
1503949855.7,286047010.2,N
1503949875.5,286047010.3,N
1503949895.4,286047007.7,N
1503949915.2,286047008.2,N
1503949935.1,286047009.7,P
1503949936.0,286047009.7,P
1503949955.8,286047002.0,N
1503949975.6,286047003.3,N
1503949995.4,286047005.6,N
1503950015.3,286047005.8,N
1503950035.1,286047002.3,N
1503950055.8,286047002.0,N
1503950075.7,286046999.7,N
1503950095.5,286047002.6,N
1503950115.3,286047000.3,N
1503950135.2,286046999.9,N
1503950155.9,286046998.1,N
1503950175.7,286046999.5,N
1503950195.6,286047002.4,N
1503950215.4,286047004.0,N
1503950235.2,286047003.0,N
1503950255.1,286047005.8,N
1503950256.0,286047005.8,N
1503950275.8,286047001.7,N
1503950295.6,286047000.5,N
1503950315.4,286047002.7,N
1503950335.3,286047001.5,N
1503950355.1,286047001.3,N
1503950375.8,286047002.4,N
1503950395.7,286047004.7,N
